[[{"header":{"parameterUnit":"m.s-1","parameterCategory":1,"la1":30.2991,"la2":30.254,"lo1":-89.0895,"lo2":-89.0444,"dy":0.0017,"dx":0.0017,"nx":28,"ny":28,"refTime":"2023-07-20T03:00:00:Z","depth":0,"parameterNumber":2,"parameterNumberName":"U-component_of_WINDS"},"data":[0,0,0,0,0,0,0,0,0,0,0,0,0,0,0,0,0,0,0,0,0,0,0,0,0,0,0,0,0,0,0,0,0,0,0,0,0,0,0,0,0,0,0,0,0,0,0,0,0,0,0,0,0,0,0,0,0,0,4.3977,4.3978,0,4.414,4.4142,4.4144,4.4101,4.4097,4.4094,4.4091,4.4262,4.4269,4.4277,0,0,0,0,0,0,0,0,0,0,0,0,0,4.363,4.3637,4.3976,4.3978,4.398,4.414,4.4142,4.4144,4.4101,4.4097,4.4093,4.4089,4.4259,4.4268,4.4277,0,0,0,0,0,0,0,0,0,0,0,0,0,4.3786,4.3639,4.3976,4.3978,4.398,4.4139,4.4142,4.4145,4.4102,4.4097,4.4092,4.4088,4.4256,4.4267,4.4278,4.4447,0,0,4.4313,4.4318,0,0,0,0,0,0,0,0,4.3777,4.3799,4.3976,4.3978,4.3981,4.4095,4.4082,4.4246,4.4103,4.4056,4.4091,4.4085,4.421,4.4225,4.4267,4.4455,4.4462,4.4314,4.4321,4.4326,4.4329,0,0,0,0,0,0,0,4.3767,4.3792,4.4041,4.3978,4.3981,4.3972,4.3989,4.4113,4.4159,4.406,4.4057,4.4077,4.4211,4.4256,4.427,4.4464,4.4314,4.4324,4.4331,4.4335,4.4799,4.4804,0,0,0,0,0,0,4.3753,4.3783,4.4036,4.4046,4.3865,4.3982,4.4001,4.4063,4.4157,4.4167,4.4081,4.4074,4.4239,4.4257,4.4276,4.4479,4.4326,4.4337,4.4343,4.4793,4.48,4.4806,0,0,0,0,0,0,4.3746,4.3776,4.4029,4.3914,4.3945,4.3993,4.4064,4.4069,4.4114,4.4173,4.4181,4.4118,4.4236,4.426,4.4404,4.4485,4.4342,4.4352,4.4787,4.4795,4.4803,4.4887,0,0,0,0,0,0,4.3736,4.3774,4.3838,4.3915,4.3952,4.4154,4.4069,4.4076,4.4133,4.4126,4.421,4.422,4.4234,4.4388,4.4416,4.4498,4.4361,4.478,4.4791,4.48,4.4877,4.4897,4.4914,0,0,0,0,0,4.3724,4.3855,4.3841,4.3872,4.4032,4.4159,4.4179,4.4192,4.414,4.4205,4.4243,4.4217,4.4471,4.4403,4.4434,4.4521,4.4775,4.4788,4.48,4.4869,4.4893,4.4913,0,0,0,0,0,0,4.3787,4.3866,4.3851,4.4011,4.4078,4.4151,4.4233,4.4217,4.4302,4.4292,4.4305,4.4324,4.4472,4.4511,4.4433,4.4688,4.4616,4.4635,4.4658,4.4681,4.4699,4.4687,4.437,0,0,0,0,0,4.3819,4.3915,4.3979,4.4114,4.4148,4.4185,4.4241,4.4245,4.4316,4.4344,4.4393,4.4464,4.4559,4.4622,4.4714,4.4882,4.49,4.4957,4.4976,4.499,4.5007,4.5099,4.5126,4.4846,4.4846,4.4846,0,0,4.3887,4.3942,4.4002,4.4128,4.418,4.428,4.421,4.4318,4.4392,4.4361,4.45,4.4538,4.4618,4.4775,4.4847,4.4812,4.5088,4.5006,4.5018,4.5026,4.5115,4.5141,4.5165,4.4855,4.4853,4.4852,0,0,4.4062,4.4113,4.4231,4.4285,4.4365,4.4389,4.4418,4.4493,4.4517,4.4656,4.4635,4.4724,4.4889,4.4947,4.4998,4.5195,4.5174,4.5224,4.532,4.541,4.5432,4.5452,4.5522,4.5547,4.524,4.5241,4.5241,0,4.4137,4.4285,4.4294,4.4404,4.4461,4.4436,4.4557,4.4609,4.4716,4.4756,4.4715,4.4921,4.4973,4.5144,4.5192,4.5234,4.5267,4.5215,4.5428,4.5448,4.5466,4.5533,4.556,4.5246,4.5246,4.5245,4.5244,0,4.4373,4.4476,4.4562,4.4664,4.4731,4.4845,4.4873,4.4939,4.4937,4.4965,4.5108,4.517,4.5273,4.5314,4.5313,4.5485,4.5461,4.5424,4.5351,4.5498,4.5562,4.5587,4.5254,4.5252,4.525,4.5249,0,0,4.4592,4.4698,4.4729,4.4776,4.4862,4.4943,4.5057,4.5157,4.5214,4.5288,4.5385,4.5524,4.5491,4.5549,4.5555,4.5634,4.5786,4.5588,4.559,4.5623,4.5979,4.6006,4.6036,4.5773,4.5778,4.5782,4.5972,0,4.4775,4.4974,4.4986,4.5167,4.5263,4.5241,4.534,4.5405,4.5435,4.5521,4.5554,4.5653,4.5601,4.5636,4.5713,4.5751,4.5858,4.5738,4.5864,4.5868,4.5844,4.6069,4.6098,4.6274,4.5997,4.6001,4.6004,0,4.5015,4.5095,4.5286,4.5359,4.5399,4.5489,4.5581,4.5664,4.5737,4.5753,4.5817,4.5812,4.593,4.5853,4.6016,4.5934,4.5986,4.6013,4.602,4.6032,4.5945,4.6088,4.6331,4.6358,4.6044,4.604,4.6038,0,4.5156,4.5312,4.5446,4.5486,4.5575,4.5638,4.5679,4.5747,4.5806,4.5888,4.5926,4.6021,4.6073,4.6147,4.6168,4.6109,4.633,4.6255,4.6347,4.6347,4.6395,4.6392,4.6651,4.6429,4.6428,4.6428,4.6427,0,4.5359,4.5476,4.5511,4.5593,4.5725,4.5737,4.5867,4.5904,4.5964,4.6054,4.6042,4.6126,4.6149,4.6238,4.6255,4.6388,4.6411,4.6428,4.6431,4.6429,4.6427,4.6464,4.6452,4.6435,4.6433,4.6432,4.6431,0,4.5539,4.5566,4.5711,4.5783,4.5804,4.5898,4.5959,4.6039,4.6067,4.6181,4.6208,4.6252,4.6356,4.6384,4.651,4.6521,4.6677,4.6669,4.6652,4.6652,4.6743,4.6734,4.7035,4.7075,4.6827,4.6829,4.6831,0,4.5666,4.5756,4.5837,4.5896,4.5938,4.6034,4.6094,4.611,4.6174,4.6263,4.6333,4.6435,4.6518,4.6686,4.673,4.6826,4.682,4.6918,4.6834,4.6829,4.6821,4.6816,4.6825,4.6934,4.6937,4.6939,4.6941,0,4.589,4.59,4.5986,4.6078,4.615,4.6224,4.6294,4.6343,4.637,4.6442,4.6548,4.6612,4.6739,4.6842,4.6938,4.6981,4.6966,4.6967,4.6994,4.6993,4.6979,4.6988,4.6696,4.696,4.6958,4.6957,4.6956,4.6955,4.6049,4.6127,4.6196,4.6294,4.6348,4.6414,4.6492,4.6529,4.6617,4.6722,4.6726,4.6841,4.6913,4.7041,4.7088,4.7179,4.715,4.7188,4.7198,4.7207,4.7215,4.6965,4.7197,4.7196,4.7196,4.7196,4.7195,0,4.6272,4.6315,4.6404,4.6503,4.6579,4.6557,4.6634,4.67,4.6801,4.6868,4.6949,4.7071,4.717,4.7221,4.732,4.7383,4.7379,4.7408,4.7404,4.7414,4.7236,4.7203,4.741,4.741,4.741,4.741,4.741,4.741,4.6397,4.6529,4.6546,4.6705,4.6748,4.686,4.6906,4.6967,4.702,4.7156,4.7238,4.727,4.7331,4.7434,4.7524,4.7536,4.7573,4.7607,4.7616,4.7448,4.7427,4.7406,4.7375,4.7615,4.7615,4.7786,4.7788,4.7789]},{"header":{"parameterUnit":"m.s-1","parameterCategory":1,"la1":30.2991,"la2":30.254,"lo1":-89.0895,"lo2":-89.0444,"dy":0.0017,"dx":0.0017,"nx":28,"ny":28,"refTime":"2023-07-20T03:00:00:Z","depth":0,"parameterNumber":3,"parameterNumberName":"V-component_of_WINDS"},"data":[0,0,0,0,0,0,0,0,0,0,0,0,0,0,0,0,0,0,0,0,0,0,0,0,0,0,0,0,0,0,0,0,0,0,0,0,0,0,0,0,0,0,0,0,0,0,0,0,0,0,0,0,0,0,0,0,0,0,-0.9368,-0.9368,0,-0.9338,-0.9338,-0.9337,-0.9325,-0.9325,-0.9325,-0.9325,-0.9292,-0.9291,-0.929,0,0,0,0,0,0,0,0,0,0,0,0,0,-0.9415,-0.9414,-0.9369,-0.9368,-0.9368,-0.9338,-0.9338,-0.9337,-0.9325,-0.9325,-0.9325,-0.9325,-0.9292,-0.9291,-0.929,0,0,0,0,0,0,0,0,0,0,0,0,0,-0.939,-0.9413,-0.9369,-0.9358,-0.9357,-0.9338,-0.9338,-0.9337,-0.9325,-0.9325,-0.9325,-0.9325,-0.9292,-0.9291,-0.929,-0.9278,0,0,-0.9285,-0.9285,0,0,0,0,0,0,0,0,-0.9392,-0.9389,-0.936,-0.9359,-0.9357,-0.9335,-0.9342,-0.9317,-0.9325,-0.9337,-0.9325,-0.9325,-0.9306,-0.9303,-0.9297,-0.9277,-0.9275,-0.9285,-0.9284,-0.9284,-0.9283,0,0,0,0,0,0,0,-0.9393,-0.939,-0.9356,-0.936,-0.9358,-0.9354,-0.9351,-0.9337,-0.9321,-0.9336,-0.9335,-0.9332,-0.9305,-0.9299,-0.9296,-0.9275,-0.9285,-0.9284,-0.9283,-0.9282,-0.9244,-0.9244,0,0,0,0,0,0,-0.9397,-0.9391,-0.9357,-0.9355,-0.9375,-0.9353,-0.935,-0.9342,-0.9321,-0.9318,-0.9331,-0.9331,-0.9301,-0.9298,-0.9295,-0.9281,-0.9284,-0.9282,-0.9281,-0.9244,-0.9244,-0.9244,0,0,0,0,0,0,-0.9398,-0.9394,-0.9359,-0.9373,-0.9368,-0.9353,-0.9344,-0.9342,-0.9335,-0.9318,-0.9315,-0.9328,-0.9301,-0.9297,-0.9283,-0.928,-0.9282,-0.928,-0.9245,-0.9244,-0.9244,-0.9253,0,0,0,0,0,0,-0.9399,-0.9395,-0.9391,-0.9373,-0.9368,-0.9347,-0.9344,-0.9341,-0.9333,-0.9332,-0.9314,-0.9311,-0.9301,-0.9285,-0.9282,-0.9278,-0.9279,-0.9245,-0.9244,-0.9244,-0.9252,-0.9253,-0.9253,0,0,0,0,0,-0.9401,-0.9394,-0.939,-0.9386,-0.9362,-0.9347,-0.9344,-0.9333,-0.9333,-0.9328,-0.9317,-0.9311,-0.9281,-0.9284,-0.928,-0.9275,-0.9245,-0.9244,-0.9244,-0.9252,-0.9253,-0.9253,0,0,0,0,0,0,-0.941,-0.9391,-0.9387,-0.9374,-0.9362,-0.9345,-0.9339,-0.9334,-0.9321,-0.9321,-0.9308,-0.9304,-0.9291,-0.9281,-0.9285,-0.9264,-0.9262,-0.9261,-0.927,-0.927,-0.927,-0.9272,-0.9278,0,0,0,0,0,-0.9411,-0.94,-0.9384,-0.9374,-0.9368,-0.9355,-0.9348,-0.9341,-0.9328,-0.9323,-0.9311,-0.9298,-0.9285,-0.9277,-0.9265,-0.9251,-0.9247,-0.9246,-0.9247,-0.9247,-0.9246,-0.9238,-0.9238,-0.9243,-0.9243,-0.9243,0,0,-0.9411,-0.94,-0.9394,-0.9375,-0.9366,-0.9355,-0.9351,-0.9339,-0.9331,-0.9321,-0.9307,-0.9297,-0.9282,-0.9268,-0.9262,-0.926,-0.9243,-0.9246,-0.9247,-0.9245,-0.9238,-0.9237,-0.9237,-0.9243,-0.9243,-0.9243,0,0,-0.9407,-0.9397,-0.9388,-0.9379,-0.9364,-0.9355,-0.9353,-0.9337,-0.933,-0.9316,-0.9308,-0.9298,-0.9277,-0.9267,-0.9259,-0.9252,-0.9246,-0.9248,-0.9248,-0.9241,-0.9241,-0.924,-0.9238,-0.9237,-0.9247,-0.9247,-0.9247,0,-0.9409,-0.9394,-0.9384,-0.9373,-0.9365,-0.9356,-0.9346,-0.9337,-0.9319,-0.9314,-0.9313,-0.9287,-0.9276,-0.926,-0.9258,-0.9252,-0.9249,-0.9249,-0.9242,-0.9241,-0.9241,-0.9238,-0.9237,-0.9247,-0.9247,-0.9247,-0.9247,0,-0.9397,-0.9386,-0.9381,-0.9364,-0.9356,-0.9346,-0.9334,-0.9326,-0.932,-0.9311,-0.9297,-0.9284,-0.9269,-0.9265,-0.9258,-0.9248,-0.9247,-0.9244,-0.9243,-0.9241,-0.9238,-0.9237,-0.9248,-0.9248,-0.9248,-0.9247,0,0,-0.9397,-0.9376,-0.9374,-0.9367,-0.9351,-0.9342,-0.9331,-0.9317,-0.9311,-0.9299,-0.929,-0.9273,-0.927,-0.9261,-0.9253,-0.9247,-0.9242,-0.9245,-0.9244,-0.9245,-0.923,-0.9232,-0.9231,-0.9239,-0.9238,-0.9238,-0.9231,0,-0.939,-0.9372,-0.9363,-0.9348,-0.9338,-0.933,-0.932,-0.9309,-0.9301,-0.9291,-0.9281,-0.9269,-0.9267,-0.9261,-0.9255,-0.9244,-0.9239,-0.9245,-0.9229,-0.9229,-0.9233,-0.923,-0.9232,-0.9226,-0.923,-0.923,-0.923,0,-0.938,-0.9369,-0.9353,-0.9339,-0.9334,-0.9326,-0.9313,-0.9304,-0.9291,-0.9285,-0.9276,-0.9269,-0.9257,-0.9257,-0.9241,-0.9245,-0.9238,-0.9232,-0.9231,-0.9229,-0.9229,-0.9227,-0.9224,-0.9223,-0.9228,-0.9228,-0.9228,0,-0.9381,-0.9362,-0.9351,-0.9345,-0.9328,-0.9322,-0.9315,-0.9302,-0.9295,-0.9283,-0.9278,-0.9265,-0.9258,-0.9248,-0.9237,-0.9238,-0.9222,-0.9221,-0.9217,-0.9217,-0.9213,-0.9213,-0.9208,-0.9209,-0.9209,-0.9209,-0.921,0,-0.9374,-0.9365,-0.9351,-0.9344,-0.9333,-0.9323,-0.9313,-0.9305,-0.9294,-0.9284,-0.9277,-0.9268,-0.9255,-0.9245,-0.9236,-0.9224,-0.9221,-0.9216,-0.9214,-0.9216,-0.9217,-0.9211,-0.9211,-0.9209,-0.9209,-0.9209,-0.9209,0,-0.9373,-0.9364,-0.9351,-0.9336,-0.9332,-0.9325,-0.9312,-0.9305,-0.9296,-0.9285,-0.9282,-0.9268,-0.9256,-0.9245,-0.9228,-0.9223,-0.921,-0.9208,-0.9215,-0.9213,-0.921,-0.921,-0.9201,-0.9199,-0.9202,-0.9202,-0.9202,0,-0.937,-0.9362,-0.9347,-0.9341,-0.9334,-0.9324,-0.9316,-0.9306,-0.9299,-0.9284,-0.9278,-0.9266,-0.9255,-0.9236,-0.9224,-0.9212,-0.9208,-0.9206,-0.9206,-0.9209,-0.9208,-0.9209,-0.9208,-0.9206,-0.9206,-0.9206,-0.9206,0,-0.9364,-0.936,-0.9349,-0.9338,-0.9329,-0.932,-0.9309,-0.9305,-0.9293,-0.9284,-0.9272,-0.9264,-0.9248,-0.9235,-0.9221,-0.9213,-0.9207,-0.9206,-0.9204,-0.9207,-0.9211,-0.9209,-0.9215,-0.9206,-0.9206,-0.9206,-0.9206,-0.9206,-0.9361,-0.9354,-0.9343,-0.9332,-0.9324,-0.9315,-0.9307,-0.9298,-0.9288,-0.9275,-0.9269,-0.9257,-0.9245,-0.9226,-0.9218,-0.9208,-0.9207,-0.9204,-0.9203,-0.9203,-0.9203,-0.9213,-0.9205,-0.9205,-0.9205,-0.9205,-0.9205,0,-0.9354,-0.9347,-0.9337,-0.9324,-0.9315,-0.9312,-0.9301,-0.9293,-0.9283,-0.9272,-0.9262,-0.9249,-0.9237,-0.9225,-0.9212,-0.9206,-0.9203,-0.9203,-0.9203,-0.9202,-0.9205,-0.9208,-0.9206,-0.9206,-0.9206,-0.9206,-0.9206,-0.9206,-0.935,-0.9339,-0.9333,-0.9318,-0.931,-0.9299,-0.9293,-0.9284,-0.9276,-0.9261,-0.9251,-0.9244,-0.9233,-0.922,-0.9209,-0.9206,-0.9201,-0.9202,-0.9198,-0.9201,-0.9201,-0.9201,-0.9204,-0.9201,-0.9201,-0.9195,-0.9195,-0.9195]}]]